Probability
1 1 1 1 1 0 0 0 0 0 0 1 2 2 1 0 0 1 1 1 3 3 1 1 3 2 1 3 5 6 4 2 1 0 0 0 0 0 0 0 0 0 0
0 1 1 3 3 1 0 0 0 0 0 0 1 1 0 0 0 0 0 1 2 3 2 2 3 2 1 2 4 5 3 2 1 1 0 0 0 0 0 0 0 0 0
0 0 2 5 5 3 1 0 0 0 0 0 0 0 0 0 0 0 0 0 1 2 2 3 4 2 1 1 2 3 3 3 4 3 1 0 0 0 0 0 0 0 0
0 0 2 4 5 3 2 1 0 0 0 0 0 0 1 1 1 0 0 0 0 1 2 3 3 2 1 1 2 3 2 3 4 3 1 0 0 0 0 0 0 0 0
0 0 1 2 3 2 3 2 1 1 0 0 0 1 2 2 1 0 0 0 0 1 2 3 3 2 1 1 3 4 3 2 3 2 0 0 0 0 0 0 0 0 0
0 0 1 2 2 2 2 2 2 2 1 0 0 2 3 2 0 0 0 0 0 1 3 4 4 3 1 1 2 4 3 2 2 1 0 0 0 0 0 0 0 0 0
0 0 1 2 2 1 1 1 1 1 1 0 1 3 4 2 1 0 1 1 2 2 2 3 4 3 1 0 1 2 2 1 1 0 0 0 0 0 0 0 0 0 0
0 0 1 2 2 1 1 0 1 1 1 1 1 2 3 3 2 1 1 2 3 3 2 2 2 2 1 0 1 1 1 1 1 1 0 0 0 0 0 0 0 0 0
0 0 0 1 2 2 1 1 2 2 2 2 2 2 2 2 2 1 0 1 2 3 2 1 1 1 0 0 1 2 2 1 1 2 1 0 0 1 1 2 1 1 0
0 0 0 0 1 1 1 1 2 2 3 3 2 1 1 1 1 1 1 1 1 2 1 1 1 1 0 0 1 2 2 1 1 1 1 0 1 2 3 3 3 2 1
0 0 0 0 0 0 0 0 1 1 1 2 2 1 0 0 0 1 2 2 1 1 0 0 1 1 1 1 0 1 1 0 0 0 0 1 2 3 3 3 3 3 3
0 0 0 0 0 0 0 1 2 1 1 1 1 1 0 0 0 1 2 3 2 0 0 0 1 2 3 3 2 1 1 1 0 0 0 1 2 3 3 3 3 3 3
0 0 0 0 0 0 0 1 3 3 2 1 0 0 0 0 0 0 1 3 2 1 0 1 3 4 5 6 5 4 2 1 0 0 0 1 2 2 2 2 3 3 3
0 0 0 0 0 0 0 1 3 3 2 1 0 0 0 0 0 0 1 4 5 3 2 3 5 5 7 8 8 6 2 0 0 0 0 1 1 0 1 1 1 2 3
0 0 0 0 0 0 1 1 2 3 2 1 0 0 0 0 0 1 2 4 5 5 5 5 5 6 7 9 8 5 2 0 0 0 0 0 0 0 0 0 0 1 2
1 0 0 0 0 1 1 1 1 2 1 0 0 0 0 0 1 2 3 3 3 4 6 6 6 6 6 6 5 3 2 1 0 0 0 1 0 0 0 1 1 0 1
2 1 0 0 0 1 1 1 0 1 1 0 0 0 0 1 2 3 2 1 1 3 5 7 6 5 3 2 2 2 2 1 0 0 2 3 2 1 1 2 2 1 0
2 1 0 0 0 0 0 0 0 0 0 0 1 1 1 1 2 3 2 1 1 2 3 4 4 4 3 2 2 3 4 3 2 2 4 4 3 3 2 2 2 1 1
2 2 2 2 0 0 0 0 0 0 0 1 2 1 1 1 1 2 2 2 1 1 1 1 2 3 3 3 4 5 5 5 4 4 4 4 4 4 2 1 2 2 3
2 2 3 3 1 1 0 0 0 0 0 1 2 1 0 0 0 1 1 1 1 0 0 0 1 2 2 3 4 5 6 5 4 4 3 2 1 1 1 1 1 2 4
4 4 4 3 2 1 0 0 0 0 0 1 1 0 0 0 0 0 0 0 0 0 0 0 1 1 1 2 4 4 4 3 2 2 1 0 0 0 0 0 1 3 4
5 5 4 4 3 2 1 0 0 0 0 0 0 0 0 0 0 0 0 0 0 0 0 0 0 0 0 1 3 2 1 1 1 1 0 0 0 0 0 0 1 2 3
6 4 4 5 5 4 3 2 1 1 0 0 0 0 0 0 0 0 0 0 0 0 0 0 0 0 0 1 1 1 1 1 1 0 0 0 0 1 0 0 0 1 2
5 4 3 4 6 8 8 6 4 2 1 0 0 0 0 0 0 0 1 0 0 0 0 0 0 0 0 1 1 1 2 3 2 1 1 0 0 1 1 0 1 2 3
4 3 2 3 6 9 10 8 6 4 2 1 1 2 2 2 1 1 1 0 0 0 0 0 0 0 0 2 3 3 3 4 4 3 1 0 0 1 1 1 3 5 6
3 2 1 2 6 8 8 7 6 5 3 3 4 4 4 3 2 2 1 0 0 0 0 0 0 0 1 3 4 4 4 4 5 3 1 0 0 1 1 2 3 5 6
Wind_Speed
4 5 8 5 5 6 7 8 9 9 9 9 9 10 10 11 12 12 13 13 14 14 15 15 15 15 15 14 14 13 13 12 12 12 12 11 11 11 11 11 10 10 13
4 5 8 5 5 6 7 8 9 9 9 9 9 9 9 10 11 11 12 12 13 14 14 15 14 14 14 14 13 13 12 12 12 12 12 12 11 11 10 9 6 10 12
5 5 6 7 6 6 8 8 9 8 8 8 8 9 9 9 9 10 11 12 13 14 13 14 14 14 14 13 13 12 12 11 11 10 10 9 11 10 10 10 10 12 11
5 5 6 8 7 7 8 9 9 8 8 8 8 8 8 8 8 9 10 11 12 13 14 15 14 14 13 13 12 12 11 11 10 9 7 7 9 11 10 10 11 11 11
6 5 9 9 8 8 8 8 8 8 8 8 8 8 8 8 8 9 9 10 11 12 13 13 13 13 13 13 12 11 11 10 10 8 6 6 7 10 10 10 10 10 10
6 6 10 9 8 8 8 7 7 7 7 7 8 7 8 8 8 8 9 9 11 12 12 13 13 13 12 12 11 11 10 10 10 6 6 6 8 10 10 10 10 10 10
6 7 10 10 8 8 7 7 7 7 7 7 7 7 7 7 7 8 8 9 10 11 11 12 12 12 12 11 11 10 10 9 6 6 5 5 8 10 10 9 10 10 9
6 7 9 10 8 7 7 7 7 6 7 7 7 7 7 7 7 8 8 8 9 10 10 11 11 11 11 11 10 10 9 8 6 6 5 5 9 9 9 9 9 9 9
6 6 6 7 8 8 7 7 6 6 6 7 7 6 6 6 7 8 7 8 9 9 9 10 11 11 10 10 9 9 9 7 5 5 6 5 9 9 9 9 9 9 9
6 6 5 4 4 4 6 7 6 6 6 6 6 6 6 6 7 8 7 8 8 8 9 9 10 10 10 9 9 9 10 8 5 5 4 7 10 9 9 9 9 9 8
5 4 4 4 4 3 4 6 6 6 6 6 6 6 5 4 5 6 7 8 9 9 9 8 9 9 10 10 10 10 10 4 4 3 4 9 10 9 9 9 9 9 8
4 4 4 4 4 3 3 4 3 3 4 3 3 4 3 3 2 3 7 8 9 9 9 8 7 9 9 7 9 11 4 4 4 3 5 10 9 9 8 9 9 9 8
4 4 4 4 3 3 2 2 2 2 2 3 4 3 3 3 3 3 3 5 6 8 7 8 8 5 4 3 3 4 3 3 2 3 6 10 9 9 8 8 9 8 8
4 4 3 3 3 3 2 2 2 2 2 2 3 3 3 2 2 3 2 3 3 3 4 4 3 4 3 4 4 4 4 3 2 2 5 9 8 8 8 9 9 9 8
4 3 3 3 3 2 2 1 2 2 2 3 2 3 2 2 2 3 2 2 3 3 4 3 3 4 3 4 3 4 4 3 3 2 4 9 8 7 8 9 9 9 9
4 3 3 2 3 3 2 2 1 2 2 2 2 3 2 2 2 2 3 2 2 3 3 3 4 4 3 3 4 4 3 3 3 3 3 7 9 9 9 9 9 9 9
4 3 3 3 3 2 2 2 2 2 2 2 3 3 2 2 2 2 2 2 2 3 3 3 4 3 3 3 4 3 3 3 3 3 3 3 6 9 9 9 9 9 9
4 4 3 2 3 3 2 1 1 2 2 2 2 2 2 2 2 2 2 2 2 2 2 3 3 3 2 2 3 2 2 3 3 3 3 3 3 4 8 10 9 9 9
4 4 3 2 3 3 3 2 2 2 2 1 2 2 2 2 2 2 1 2 2 2 2 2 3 2 2 2 2 2 2 2 3 4 3 3 4 4 3 8 10 9 9
5 4 4 4 3 3 3 2 2 2 2 1 1 2 2 2 2 1 2 2 1 2 2 2 2 1 1 1 1 2 1 1 2 2 3 3 3 4 4 5 6 8 10
5 5 5 4 4 3 2 3 3 3 2 2 2 2 2 2 3 1 1 3 1 2 2 2 2 3 2 1 1 1 1 2 2 2 3 3 4 4 4 4 4 3 5
6 6 6 6 5 5 3 2 2 1 2 2 1 2 2 2 2 2 2 2 2 1 2 2 1 1 1 1 1 1 2 2 2 3 3 3 3 3 4 5 4 4 4
7 7 6 6 6 5 4 3 3 3 2 2 2 2 2 2 2 1 1 1 1 2 2 2 2 2 1 1 1 2 2 1 1 2 3 2 2 3 4 4 5 5 5
7 7 7 7 6 6 5 4 4 3 2 2 1 2 3 3 2 2 2 1 1 1 1 2 2 1 2 2 1 2 2 2 2 1 3 3 3 4 4 3 4 4 5
7 6 7 7 6 6 5 5 5 4 3 2 2 3 2 2 2 2 2 1 1 1 1 0 0 2 1 2 2 2 2 2 3 3 2 1 2 3 3 4 3 3 4
7 6 7 7 6 5 5 5 5 4 3 3 3 3 3 2 2 2 2 2 2 1 1 2 2 2 2 2 2 2 2 2 2 2 2 3 2 2 2 2 3 3 4
Wind_Direction
60 70 97 113 118 125 127 129 130 130 131 130 129 132 136 139 141 141 142 143 143 142 142 143 143 141 139 138 138 138 137 136 135 134 133 129 128 127 126 131 136 120 118
70 84 107 119 123 127 129 127 127 130 129 128 128 131 136 137 140 143 145 145 143 144 146 149 146 143 141 142 143 142 140 137 136 138 139 135 130 129 128 126 114 113 125
81 94 112 109 117 123 125 126 125 123 123 127 129 132 135 136 140 147 149 148 145 147 150 152 147 144 144 145 143 142 139 137 138 147 161 144 131 133 132 126 118 122 127
82 89 91 104 115 117 120 121 119 118 119 125 130 132 133 135 136 139 147 148 148 149 149 148 146 148 148 146 144 142 141 143 149 172 168 137 134 133 138 135 130 132 130
83 89 95 104 111 114 118 120 118 119 119 124 131 134 134 133 136 138 142 147 148 148 148 149 149 149 147 146 145 143 145 151 168 186 140 133 126 134 141 140 136 135 134
93 99 100 106 109 110 113 115 118 118 118 123 127 129 128 130 135 137 140 146 150 153 152 152 151 149 148 148 149 149 152 164 186 155 141 143 132 139 143 142 142 142 142
95 95 103 106 107 106 111 111 114 118 120 124 123 124 125 128 132 136 142 150 155 156 155 155 155 154 154 154 155 156 160 180 180 144 145 139 126 140 146 145 145 146 148
99 97 103 117 111 111 116 116 114 112 116 123 124 124 126 131 134 138 141 148 152 155 157 157 157 158 160 158 160 161 166 192 171 149 145 132 126 145 148 149 148 151 153
94 92 99 112 120 124 123 119 121 120 120 125 127 127 128 131 133 140 141 147 149 152 157 158 160 162 164 165 167 168 172 201 193 146 148 135 138 153 157 159 158 158 161
87 86 93 95 102 119 125 125 125 127 128 128 129 129 133 139 139 143 149 149 150 155 159 161 165 164 166 170 173 175 178 202 177 151 147 132 148 163 167 166 165 165 167
82 82 92 96 97 106 117 125 136 134 135 145 141 140 155 148 142 150 132 143 156 160 162 164 166 168 176 176 177 178 186 200 157 148 140 132 161 175 178 175 173 172 171
87 89 93 87 90 95 105 113 127 126 128 137 127 136 135 121 122 117 119 140 152 159 165 165 169 179 197 175 171 182 186 173 164 158 136 148 170 178 179 180 177 177 178
107 98 99 95 93 88 95 109 110 111 118 130 127 125 120 134 134 127 134 143 151 164 170 165 179 179 175 157 166 174 159 172 162 156 141 156 172 181 184 185 183 183 186
115 103 93 93 81 71 68 101 124 125 128 118 122 132 129 130 124 123 132 136 152 158 158 166 162 160 162 157 161 160 164 171 157 147 139 158 175 186 194 193 189 191 191
118 112 101 100 94 82 81 113 115 119 126 125 136 134 136 140 137 139 132 140 157 146 156 162 160 154 155 151 158 159 158 152 160 175 147 163 179 192 206 202 197 199 198
136 128 121 121 111 102 104 107 112 127 126 124 130 126 148 143 138 148 147 145 144 148 143 153 151 157 157 150 162 161 165 166 169 184 180 167 183 196 205 206 205 205 203
149 141 144 143 124 128 127 136 131 133 125 126 122 134 157 159 143 152 145 148 139 145 149 156 151 152 156 156 159 166 173 182 180 187 201 193 179 187 198 203 206 207 204
157 154 162 158 143 144 139 146 135 129 125 130 133 139 147 148 156 169 153 140 144 156 161 155 167 153 152 161 154 161 163 174 186 194 200 195 195 187 187 197 205 207 208
169 166 166 164 152 153 149 153 146 130 136 138 141 133 134 147 150 166 134 117 162 159 168 177 128 168 156 152 161 158 180 189 189 187 193 200 195 207 202 180 194 203 207
175 174 171 166 160 166 161 159 158 143 149 143 139 117 126 132 130 146 150 131 168 153 146 135 130 150 174 171 162 123 183 201 202 185 206 197 201 208 210 200 195 195 201
178 179 182 177 167 181 178 182 168 164 166 149 146 127 134 122 119 137 127 127 169 150 154 155 154 159 174 154 177 181 188 207 202 203 215 207 201 205 208 212 221 218 191
185 188 187 185 178 187 177 178 170 163 171 147 133 124 140 132 143 148 136 167 163 148 162 163 174 228 194 191 241 229 216 190 199 201 201 206 213 205 204 209 212 211 227
190 192 193 191 186 192 184 179 167 165 191 166 160 145 145 150 148 110 135 151 156 192 168 182 196 207 228 224 252 272 278 253 185 171 203 207 207 210 213 208 211 210 213
193 189 192 188 188 190 189 191 188 186 188 175 170 142 152 155 155 149 149 155 177 194 162 207 184 205 217 216 197 248 280 309 274 208 194 186 209 213 220 220 211 205 210
189 187 183 182 185 187 191 190 198 200 194 180 164 148 165 151 162 168 155 163 175 202 175 230 216 242 226 239 225 210 224 233 247 254 234 229 213 208 206 214 219 217 213
184 183 178 175 180 184 189 194 202 200 194 182 178 171 177 167 167 175 178 179 190 204 191 209 214 213 242 253 266 251 242 247 243 249 245 246 240 221 213 215 219 216 217